This is the latest recevied weather packets stored in our database for station/object K1ZK-13. If no packets are shown the sender has not sent any weather packets the latest 1 day(s).
| Time | Temp. | Humidity | Pressure | Rain* | Wind** | Luminosity | Snow |
|---|---|---|---|---|---|---|---|
| 1777979235 | 15° C | 63% | 1005.3 hPa | 0 mm | 1.34 m/s, 146° | 35 W/m² | - |
| 1777978933 | 15° C | 64% | 1005.2 hPa | 0 mm | 1.34 m/s, 135° | 43 W/m² | - |
| 1777978630 | 15° C | 63% | 1005.2 hPa | 0 mm | 2.24 m/s, 135° | 44 W/m² | - |
| 1777978325 | 14.44° C | 64% | 1005.3 hPa | 0 mm | 1.34 m/s, 141° | 41 W/m² | - |
| 1777978022 | 14.44° C | 65% | 1005.2 hPa | 0 mm | 0.45 m/s, 137° | 38 W/m² | - |
| 1777977719 | 14.44° C | 65% | 1005.3 hPa | 0 mm | 0.89 m/s, 185° | 35 W/m² | - |
| 1777977415 | 14.44° C | 65% | 1005.3 hPa | 0 mm | 1.79 m/s, 144° | 29 W/m² | - |
| 1777977114 | 14.44° C | 65% | 1005.3 hPa | 0 mm | 1.34 m/s, 141° | 24 W/m² | - |
| 1777976811 | 14.44° C | 65% | 1005.1 hPa | 0 mm | 1.34 m/s, 132° | 19 W/m² | - |
| 1777976508 | 14.44° C | 65% | 1005.1 hPa | 0 mm | 2.68 m/s, 146° | 18 W/m² | - |
| 1777976207 | 14.44° C | 66% | 1005 hPa | 0 mm | 0.89 m/s, 112° | 14 W/m² | - |
| 1777975903 | 14.44° C | 65% | 1005.2 hPa | 0 mm | 2.24 m/s, 146° | 10 W/m² | - |
| 1777975599 | 14.44° C | 63% | 1005.1 hPa | 0 mm | 1.79 m/s, 150° | 4 W/m² | - |
| 1777975296 | 15° C | 62% | 1005.1 hPa | 0 mm | 1.79 m/s, 177° | 2 W/m² | - |
| 1777974992 | 15° C | 61% | 1005.1 hPa | 0 mm | 1.34 m/s, 92° | 2 W/m² | - |
| 1777974690 | 15° C | 60% | 1005.3 hPa | 0 mm | 0 m/s | 1 W/m² | - |
| 1777974386 | 15° C | 60% | 1005.1 hPa | 0 mm | 1.79 m/s, 163° | 1 W/m² | - |
| 1777974082 | 15° C | 60% | 1005.1 hPa | 0 mm | 0.89 m/s, 100° | 1 W/m² | - |
| 1777973778 | 15° C | 60% | 1005.2 hPa | 0 mm | 0.89 m/s, 154° | 1 W/m² | - |
| 1777973476 | 14.44° C | 61% | 1005.2 hPa | 0 mm | 1.34 m/s, 143° | 1 W/m² | - |
| 1777973173 | 14.44° C | 61% | 1005.2 hPa | 0 mm | 1.79 m/s, 150° | 0 W/m² | - |
| 1777972872 | 14.44° C | 60% | 1005.2 hPa | 0 mm | 2.24 m/s, 170° | 0 W/m² | - |
| 1777972568 | 15° C | 60% | 1005.2 hPa | 0 mm | 1.34 m/s, 153° | 0 W/m² | - |
| 1777972266 | 15° C | 60% | 1005.2 hPa | 0 mm | 1.79 m/s, 119° | 0 W/m² | - |
| 1777971964 | 15° C | 59% | 1005.2 hPa | 0 mm | 2.24 m/s, 119° | 0 W/m² | - |
* Rain latest hour (hover to see other rain measurements)
** Current wind speed in m/s (hover to see current wind gust speed)